DateTimeUTC,F1_A11,F1_S11,BsB_S11,BsG_S11,BsR_S11,BbsB_S11,BbsG_S11,BbsR_S11,BaB_A11,BaG_A11,BaR_A11,Tu_S11,T_S11,Uu_S11,U_S11,P_S11,T1_A11
2021-07-13T03:00:00Z,00000200,20000000,,,,,,,-000.06,-000.07,-000.18,18.5,25.3,07.8,05.2,0670.7,31.1
2021-07-13T03:01:00Z,00000200,20000000,,,,,,,-000.22,-000.24,-000.07,18.6,25.3,07.8,05.2,0670.7,31.1
2021-07-13T03:02:00Z,00000200,20000000,,,,,,,0000.29,-000.14,-000.11,18.6,25.3,07.8,05.2,0670.7,31.1
2021-07-13T03:03:00Z,00000200,60000000,,,,,,,-000.05,0000.34,-000.04,18.6,25.4,07.9,05.2,0670.7,31.1
2021-07-13T03:04:00Z,00000200,40000000,0002.03,0001.31,0000.71,0000.29,-000.20,0000.33,-000.19,-000.06,0000.18,18.8,25.2,07.8,05.3,0671.6,31.1
2021-07-13T03:05:00Z,00000200,00000000,0002.06,0001.26,0000.78,0000.22,0000.05,-000.05,0000.17,0000.21,0000.15,18.8,25.2,07.8,05.3,0671.6,31.1
2021-07-13T03:06:00Z,00000200,00000000,0001.81,0001.04,0000.58,0000.42,0000.16,0000.29,0000.27,0000.25,0000.49,18.8,25.1,07.8,05.3,0671.6,31.1
2021-07-13T03:07:00Z,00000200,00000000,0001.67,0001.08,0000.68,0000.42,0000.24,0000.31,0000.36,0000.10,-000.29,18.8,25.1,07.9,05.3,0671.6,31.0
2021-07-13T03:08:00Z,00000200,00000000,0001.12,0001.15,0000.76,0000.97,0000.20,0000.20,0000.10,0000.02,0000.11,18.8,25.1,07.9,05.4,0671.6,31.1
2021-07-13T03:09:00Z,00000200,00000000,0001.87,0001.28,0000.83,0000.23,0000.28,0000.18,0000.14,0000.03,0000.12,18.8,25.1,08.0,05.4,0671.6,31.0
2021-07-13T03:10:00Z,00000200,00000000,0002.08,0001.39,0000.72,0000.14,0000.36,0000.17,0000.29,0000.20,0000.25,18.7,25.1,07.9,05.4,0671.6,31.0
2021-07-13T03:11:00Z,00000200,00000000,0002.06,0001.12,0000.91,0000.06,0000.56,0000.25,-000.00,0000.46,0000.02,18.7,25.1,08.0,05.5,0671.6,31.0
2021-07-13T03:12:00Z,00000200,00000000,0001.41,0001.15,0000.60,0000.31,0000.22,0000.40,0000.10,-000.29,0000.05,18.7,25.0,08.1,05.5,0671.5,31.0
2021-07-13T03:13:00Z,00000200,00000000,0001.22,0001.42,0000.51,0000.18,0000.08,-000.22,0000.26,0000.51,0000.25,18.7,25.0,08.0,05.5,0671.6,31.0
2021-07-13T03:14:00Z,00000200,00000000,0001.18,0000.60,0000.69,0000.19,0000.12,0000.16,-000.10,-000.18,-000.16,18.7,25.1,08.1,05.5,0671.6,31.0
2021-07-13T03:15:00Z,00000200,00000000,0002.37,0000.75,0000.53,0000.06,-000.01,0000.18,0000.27,-000.20,-000.14,18.8,25.1,08.1,05.5,0671.5,31.1
2021-07-13T03:16:00Z,00000200,00000000,0001.75,0000.83,0000.63,0000.27,0000.38,0000.43,0000.16,0000.65,0000.70,18.8,25.1,08.1,05.5,0671.5,31.1
2021-07-13T03:17:00Z,00000200,00000000,0001.97,0001.25,0000.57,0000.36,0000.24,0000.27,-000.13,-000.19,-000.32,18.8,25.1,08.0,05.5,0671.5,31.1
2021-07-13T03:18:00Z,00000200,00000000,0002.20,0001.04,0000.52,0000.78,0000.37,0000.28,0000.08,0000.11,-000.05,18.8,25.1,08.1,05.5,0671.5,31.1
2021-07-13T03:19:00Z,00000200,00000000,0001.05,0001.41,0000.87,0000.69,0000.15,0000.43,0000.15,0000.29,0000.21,18.8,25.1,08.0,05.4,0671.5,31.1
2021-07-13T03:20:00Z,00000200,00000000,0001.86,0001.50,0000.49,0000.49,0000.43,-000.01,0000.02,-000.07,0000.08,18.7,25.0,08.1,05.5,0671.5,31.0
2021-07-13T03:21:00Z,00000200,00000000,0001.62,0001.09,0000.63,0000.29,0000.10,0000.15,0000.29,0000.08,0000.24,18.7,25.1,08.1,05.5,0671.5,31.0
2021-07-13T03:22:00Z,00000200,00000000,0001.76,0000.98,0000.75,0000.85,0000.22,0000.24,0000.30,0000.14,0000.05,18.7,25.0,08.1,05.5,0671.5,31.0
2021-07-13T03:23:00Z,00000200,00000000,0002.60,0000.90,0000.81,0000.53,0000.16,0000.38,0000.24,0000.27,0000.08,18.7,25.0,08.1,05.5,0671.5,31.0
2021-07-13T03:24:00Z,00000200,00000000,0001.35,0001.19,0000.28,-000.05,-000.06,-000.01,-000.07,-000.03,0000.24,18.7,25.0,08.1,05.5,0671.4,31.0
2021-07-13T03:25:00Z,00000200,00000000,0001.44,0000.90,0000.51,-000.08,0000.10,0000.00,-000.11,0000.03,-000.04,18.7,25.0,08.2,05.6,0671.4,31.0
2021-07-13T03:26:00Z,00000200,00000000,0001.19,0001.08,0000.41,-000.41,0000.19,-000.02,0000.32,0000.26,0000.04,18.6,25.0,08.2,05.6,0671.4,31.0
2021-07-13T03:27:00Z,00000200,00000000,0001.87,0000.86,0000.73,0000.06,0000.13,0000.29,0000.27,0000.07,0000.27,18.6,25.0,08.3,05.6,0671.4,31.0
2021-07-13T03:28:00Z,00000200,00000000,0002.19,0000.88,0000.78,0000.41,0000.07,0000.37,0000.08,0000.67,-000.05,18.6,25.0,08.3,05.6,0671.4,31.0
2021-07-13T03:29:00Z,00000200,00000000,0002.16,0001.32,0000.66,-000.06,0000.16,0000.17,0000.44,-000.27,0000.46,18.7,25.0,08.3,05.6,0671.4,31.0
2021-07-13T03:30:00Z,00000200,00000000,0001.62,0001.13,0000.57,0000.20,-000.01,0000.17,-000.01,0000.16,-000.03,18.8,25.0,08.3,05.6,0671.4,31.1
2021-07-13T03:31:00Z,00000200,00000000,0002.21,0000.95,0000.73,0000.39,0000.43,0000.24,-000.00,0000.08,0000.02,18.9,25.1,08.2,05.6,0671.4,31.1
2021-07-13T03:32:00Z,00000200,00000000,0001.06,0001.18,0000.45,0000.87,0000.06,0000.22,0000.11,0000.23,0000.03,18.9,25.1,08.2,05.6,0671.3,31.1
2021-07-13T03:33:00Z,00000200,00000000,0001.85,0000.86,0000.82,-000.03,0000.55,0000.31,-000.25,0000.22,-000.15,19.0,25.1,08.2,05.6,0671.4,31.1
2021-07-13T03:34:00Z,00000200,00000000,0002.17,0001.27,0000.42,0000.20,0000.22,0000.11,0000.21,-000.24,0000.37,19.0,25.1,08.2,05.6,0671.4,31.1
2021-07-13T03:35:00Z,00000200,00000000,0001.38,0000.82,0001.03,0000.83,-000.32,0000.10,0000.30,0000.09,0000.06,18.9,25.1,08.1,05.6,0671.3,31.1
2021-07-13T03:36:00Z,00000200,00000000,0001.54,0000.82,0000.59,-000.04,-000.11,0000.13,-000.04,0000.13,0000.06,18.9,25.1,08.2,05.6,0671.3,31.1
2021-07-13T03:37:00Z,00000200,00000000,0001.49,0001.08,0000.64,0000.68,0000.02,-000.04,0000.31,0000.39,0000.27,18.8,25.1,08.2,05.6,0671.3,31.1
2021-07-13T03:38:00Z,00000200,00000000,0001.51,0001.11,0000.67,-000.18,0000.26,0000.64,-000.04,-000.08,0000.06,18.8,25.1,08.2,05.6,0671.3,31.0
2021-07-13T03:39:00Z,00000200,00000000,0002.26,0001.19,0000.60,0000.31,0000.15,-000.02,0000.23,0000.05,-000.28,18.8,25.1,08.2,05.6,0671.2,31.0
2021-07-13T03:40:00Z,00000200,00000000,0001.17,0000.93,0000.37,0000.19,-000.01,0000.08,0000.01,0000.01,0000.40,18.8,25.1,08.3,05.7,0671.2,31.0
2021-07-13T03:41:00Z,00000200,00000000,0002.10,0000.92,0000.52,0000.67,-000.05,0000.45,0000.49,0000.54,0000.14,18.8,25.0,08.3,05.7,0671.2,31.0
2021-07-13T03:42:00Z,00000200,00000000,0001.11,0001.02,0000.45,0000.35,0000.13,0000.52,0000.03,-000.00,0000.18,18.7,25.0,08.3,05.7,0671.2,31.0
2021-07-13T03:43:00Z,00000200,00000000,0002.14,0001.02,0000.66,0000.57,0000.12,0000.45,0000.22,0000.01,0000.03,18.7,25.0,08.4,05.7,0671.2,31.0
2021-07-13T03:44:00Z,00000200,00000000,0001.43,0000.85,0000.49,-000.15,0000.18,0000.08,0000.10,0000.49,0000.37,18.8,25.0,08.3,05.7,0671.2,31.0
2021-07-13T03:45:00Z,00000200,00000000,0002.31,0000.98,0000.83,0000.41,0000.27,0000.50,-000.08,-000.07,-000.18,18.9,25.1,08.3,05.7,0671.2,31.1
2021-07-13T03:46:00Z,00000200,00000000,0001.37,0001.00,0000.67,0000.55,0000.05,0000.07,0000.14,0000.01,-000.07,18.9,25.1,08.4,05.8,0671.2,31.1
2021-07-13T03:47:00Z,00000200,00000000,0001.07,0000.85,0000.64,-000.06,0000.30,0000.03,0000.36,0000.48,0000.24,18.9,25.1,08.4,05.7,0671.2,31.1
2021-07-13T03:48:00Z,00000200,00000000,0001.57,0000.88,0000.57,0000.80,0000.26,0000.22,0000.10,-000.20,0000.10,18.9,25.1,08.4,05.7,0671.2,31.1
2021-07-13T03:49:00Z,00000200,00000000,0001.51,0000.70,0000.71,0000.68,0000.23,0000.00,-000.11,-000.16,0000.27,18.8,25.1,08.4,05.8,0671.2,31.1
2021-07-13T03:50:00Z,00000200,00000000,0001.58,0000.93,0000.57,-000.01,0000.01,0000.07,0000.41,0000.42,-000.19,18.8,25.0,08.4,05.8,0671.1,31.0
2021-07-13T03:51:00Z,00000200,00000000,0002.07,0000.85,0000.49,0000.03,-000.05,0000.17,0000.04,0000.21,0000.34,18.8,25.0,08.6,05.8,0671.1,31.0
2021-07-13T03:52:00Z,00000200,00000000,0002.01,0001.02,0000.58,-000.00,-000.10,0000.13,0000.13,0000.08,0000.01,18.8,25.0,08.5,05.8,0671.1,31.0
2021-07-13T03:53:00Z,00000200,00000000,0001.13,0000.87,0000.46,0000.44,0000.24,-000.10,0000.21,0000.28,-000.02,18.7,25.0,08.6,05.9,0671.1,31.0
2021-07-13T03:54:00Z,00000200,00000000,0001.63,0000.92,0000.62,0000.54,0000.06,0000.19,0000.23,-000.21,0000.61,18.7,25.0,08.5,05.8,0671.1,31.0
2021-07-13T03:55:00Z,00000200,00000000,0001.62,0000.97,0000.45,-000.13,0000.08,0000.14,0000.14,0000.37,-000.18,18.7,25.0,08.5,05.8,0671.1,31.0
2021-07-13T03:56:00Z,00000200,00000000,0001.13,0000.97,0000.57,0000.19,0000.17,0000.36,0000.21,-000.14,0000.04,18.7,25.0,08.6,05.8,0671.1,31.0
2021-07-13T03:57:00Z,00000200,40000000,,,,,,,-000.31,0000.15,-000.01,18.7,25.0,08.4,05.7,0671.1,31.0
2021-07-13T03:58:00Z,00000200,60000000,,,,,,,0000.30,0000.04,0000.01,18.5,25.1,08.6,05.7,0670.1,31.0
2021-07-13T03:59:00Z,00000200,20000000,,,,,,,-000.04,0000.08,-000.12,18.5,25.2,08.4,05.6,0670.1,31.0
